Regional Weather Roundup
Issued by NWS Green Bay, WI

Home | Current Version | Previous Version | Text Only | Print | Product List | Glossary On
Versions: 1 2 3 4 5 6 7 8 9 10 11 12 13 14 15 16 17 18 19 20 21 22 23 24 25 26 27 28 29 30 31 32 33 34 35 36 37 38 39 40 41 42 43 44 45 46 47 48 49 50
000
ASUS43 KGRB 191411
RWRGRB

NORTH-CENTRAL AND NORTHEAST WISCONSIN REGIONAL WEATHER ROUNDUP
NATIONAL WEATHER SERVICE GREEN BAY WI
900 AM CDT THU APR 19 2018

WIZ005-009-010>012-018-019-191500-
NORTH CENTRAL WISCONSIN

CITY           SKY/WX    TMP DP  RH WIND       PRES   REMARKS
IRONWOOD       FAIR      33  20  58 CALM      30.37R
MANITOWISH WTR FAIR      35  19  52 N6        30.33R
ARBOR VITAE    FAIR      35  22  59 N8        30.32R
EAGLE RIVER    FAIR      33  19  56 N9        30.30R
LAND O LAKES   FAIR      35  21  57 N9        30.33R
RHINELANDER    FAIR      36  20  52 N6        30.32R
PHILLIPS       FAIR      33  19  55 N7        30.33R
ANTIGO         FAIR      32  20  62 N10       30.30R
TOMAHAWK       FAIR      35  18  50 N6        30.33R
MERRILL          N/A     35  19  53 N9        30.32S
$$

WIZ013-073-191500-
NORTHEAST WISCONSIN

CITY           SKY/WX    TMP DP  RH WIND       PRES   REMARKS
IRON MOUNTAIN  FAIR      37  20  50 N13       30.27R
MARINETTE      FAIR      38  20  48 N12G21    30.28R
OCONTO         FAIR      36  20  51 N6        30.29R
$$

WIZ017-030-035>037-045-191500-
CENTRAL WISCONSIN

CITY           SKY/WX    TMP DP  RH WIND       PRES   REMARKS
MEDFORD        FAIR      32  18  57 N5        30.32R
WAUSAU         FAIR      35  19  52 N10       30.30R
MOSINEE        MOSUNNY   36  19  51 N9        30.32R
MARSHFIELD     FAIR      35  18  49 N8        30.32R
WISC RAPIDS    FAIR      36  17  46 NW6       30.34R
STEVENS POINT  FAIR      34  18  51 N9        30.32R
WAUPACA        FAIR      39  18  41 NW7       30.31R
SHAWANO        FAIR      41  18  38 N6        30.29S
CLINTONVILLE   FAIR      33  17  51 NW6       30.30R
WAUTOMA        FAIR      35  19  52 NW5       30.33R
$$

WIZ038-039-048-051-191500-
FOX VALLEY

CITY           SKY/WX    TMP DP  RH WIND       PRES   REMARKS
NWS GREEN BAY  FAIR      37  21  52 NW7       30.29R
APPLETON       SUNNY     34  16  47 N9        30.27R
OSHKOSH        FAIR      34  20  56 N9        30.30R
FOND DU LAC    FAIR      33  18  53 NW7       30.30R
$$

WIZ022-050-052-191500-
EAST CENTRAL WISCONSIN

CITY           SKY/WX    TMP DP  RH WIND       PRES   REMARKS
EPHRAIM        FAIR      33  22  64 N14G21    30.25R
WASHINGTON ISL FAIR      35  25  68 N14G23    30.25R
STURGEON BAY   FAIR      34  22  61 N15       30.28R
MANITOWOC      FAIR      36  21  54 N14       30.28R
SHEBOYGAN      FAIR      35  23  61 N10       30.27R
$$

LMZ563-521-522-541>543-191500-
LAKESHORE

STATION/POSITION TIME  TEMP    WIND        PRES    VSBY  WAVE
                       AIR SEA DIR/SP/G                  HT/PER
                 (UTC) (F)     (DEG/KT/KT) (MB)    (MI)  (FT/S)
KEWAUNEE LKSHORE 1342   35     340/  8/ 14 1024.1R
NORTHPORT PIER   1340   33                 1024.4R
SISTER BAY LKSHO 1327   37     340/ 12/ 15   N/A
MENOMINEE LKSHOR 1336   35     340/ 13/ 16 1024.7R
$$




USA.gov is the U.S. government's official web portal to all federal, state and local government web resources and services.